Location: Blachownia
(50.7807°N, 18.9578°E)
Time: 01:10:58
(UTC+01:00)

ISS - Pass Details

Date: 30 January 2019
Orbit: 403 x 411 km, 51.6° (Epoch: 17 February)

Event Time Altitude Azimuth Distance (km) Brightness Sun altitude
Rises 17:25:22 0° 252° (WSW) 2,329 2.6 -8.6°
Reaches altitude 10° 17:27:27 10° 252° (WSW) 1,472 0.7 -9.0°
Maximum altitude 17:30:45 82° 164° (SSE) 419 -3.8 -9.5°
Enters shadow 17:33:27 15° 78° (ENE) 1,225 -2.1 -9.9°
